20:02
Airports
History
Links
Donate
Help keep this website running!
PayPal
Bitcoin
This page is community maintained. The information is intended for PC simulator navigation or reference.
Always use approved charts for navigation.
ETNH
HOHN
HOHN (ETNH)
Hohn, Schleswig-Holstein, Germany (24806)
(C)
Lat/Lng:54° 18' 43.8" N / 9° 32' 17.4" E
54.312166 / 9.538168
Elevation:39'ft / 12mMSL
ID / ICAO:ETNH
Runways:1
Longest:08-26
Concrete 2,430m / 7,973ft
Controlled:Yes
METAR19:20 GMT 2018-02-23
Altimeter: 30.36
Visibility: 6.2 statute miles
Wind: 6 knots (from 080°)
Temp: -3°c / 27°f
Humidity: 73.8%

METAR: ETNH 231920Z 08006KT 9999 M03/M07 Q1028 BLU+

(Powered by phpweather)
Airport Radio Frequencies
Tower: 122.1
Approach: 123.3
Nearby VORs <50NM
Nearby NDBs
Runway 08 / 26
Dimensions:2430.1 x 29.9m 7973' x 98'ft
Surface:Concrete
Edge Lights:High intensity
Runway 08 [A]Runway 26 [B]
Heading:079°TH 259°TH
Lat:
Lng:
54° 18' 36.55"N
9° 31' 11.07"E
54° 18' 51.04"N
9° 33' 23.74"E
ALS:MALSMALS
User Notes and Comments
54° 18' 43.8" N / 9° 32' 17.4" E
Distance To
Airport ID:
Nearby Airports
(U) RENDSBURG SCHACHTHOLM 6.8 NM
EDXR SSE 157°
(C) Schleswig Kropp 7.8 NM
EDXC N
(U) SCHLESWIG 10.2 NM
ETNS ( WX ) N 355°
(C) HUSUM SCHWESING 21.1 NM
EDXJ NW 310°
(C) Hungriger Wolf 22.1 NM
EDHF S 176°
(C) Neumuenster 23.0 NM
EDHN SE 135°
(C) Kiel Holtenau 24.9 NM
EDHK E 79°
VFR Chart
Flight Planning at SkyVector.com